Orbital Elements at Epoch 2459200.5 (2020-Dec-17.0) TDB
Reference: JPL 18 (heliocentric ecliptic J2000)
Element | Value | Uncertainty (1-sigma) | Units |
e | .1404140543442737 | 4.9488e-08 | |
a | 2.347381955837793 | 1.1699e-08 | au |
q | 2.017776538324018 | 1.1569e-07 | au |
i | 7.514696339838371 | 5.268e-06 | deg |
node | 350.1828109818176 | 3.5275e-05 | deg |
peri | 136.5356071784685 | 3.8982e-05 | deg |
M | 189.019208079762 | 1.5445e-05 | deg |
tp | 2459824.405613496589 (2022-Sep-01.90561350) | 5.6668e-05 | TDB |
period | 1313.633059809139 3.60 | 9.8208e-06 2.689e-08 | d yr |
n | .2740491321467696 | 2.0488e-09 | deg/d |
Q | 2.676987373351569 | 1.3342e-08 | au |
|
| | Orbit Determination Parameters
Additional Information
|